Home > Weather > Piešťany > Past weeks

Flag for Slovakia Past Weather in Piešťany, Slovakia — Yesterday and Last 2 Weeks

Now
84 °F

Passing clouds.


Feels Like: 83 °F
Forecast: 60 / 86 °F
Wind: 6 mph from Southwest

Location: Piestany

Current Time: Jun 29, 2016 at 4:39:19 PM

Latest Report: Jun 29, 2016 at 4:00 PM


Visibility: N/A

Pressure: 29.95 "Hg

Humidity: 35%

Dew Point: 54 °F

Location of PiešťanyLocation

Past Weather in Piešťany — Graph

°F

Piešťany Temperature Yesterday

Maximum temperature yesterday: 79 °F (at 4:00 PM)
Minimum temperature yesterday: 59 °F (at 5:00 AM)
Average temperature yesterday: 68 °F

High & Low Weather Summary for the Past Weeks

 TemperatureHumidityPressure
High91 °F (Jun 24, 1:30 PM)100% (Jun 15, 4:00 AM)30.27 "Hg (Jun 15, 4:00 AM)
Low50 °F (Jun 16, 2:00 AM)33% (Jun 29, 3:30 PM)29.50 "Hg (Jun 14, 3:30 PM)
Average70 °F69%29.97 "Hg
* Reported Jun 14 3:00 PM — Jun 29 3:30 PM, Piešťany, Weather by CustomWeather, © 2016

Note: Actual official high and low records may vary slightly from our data, if they occured in-between our weather recording intervals... More about our weather records

Advertising

Piešťany Weather History for the Previous 24 Hours

Scroll right to see more
 ConditionsComfort  
Time TempWeatherWind HumidityBarometerVisibility
3:30 PM
Wed, Jun 29
84 °FPassing clouds.6 mph33%29.95 "HgN/A
3:00 PM84 °FPassing clouds.7 mph37%29.98 "HgN/A
2:30 PM82 °FSunny.5 mph37%29.98 "Hg10 mi
2:00 PM82 °FPassing clouds.6 mph37%29.98 "HgN/A
1:30 PM82 °FSunny.5 mph40%29.98 "Hg10 mi
1:00 PM81 °FPassing clouds.7 mph42%29.98 "HgN/A
12:30 PM81 °FPassing clouds.6 mph39%29.98 "HgN/A
12:00 PM79 °FSunny.6 mph42%30.01 "Hg10 mi
11:30 AM79 °FSunny.2 mph42%30.01 "Hg10 mi
11:00 AM77 °FSunny.3 mph47%30.01 "Hg10 mi
10:30 AM75 °FSunny.3 mph47%30.01 "Hg10 mi
10:00 AM73 °FSunny.5 mph57%30.01 "Hg10 mi
9:30 AM72 °FSunny.2 mph57%30.01 "Hg10 mi
9:00 AM70 °FSunny.1 mph64%30.01 "Hg10 mi
8:30 AM66 °FSunny.2 mph68%30.04 "Hg10 mi
8:00 AM64 °FSunny.3 mph73%30.04 "Hg10 mi
7:30 AM63 °FSunny.5 mph77%30.04 "Hg10 mi
7:00 AM59 °FSunny.5 mph88%30.04 "Hg10 mi
6:30 AM57 °FPassing clouds.6 mph88%30.01 "HgN/A
6:00 AM55 °FSunny.7 mph94%30.01 "Hg10 mi
5:30 AM54 °FCool.6 mph94%30.01 "HgN/A
5:00 AM54 °FCool.3 mph94%30.01 "HgN/A
4:30 AM55 °FCool.5 mph88%30.01 "HgN/A
4:00 AM55 °FCool.6 mph88%30.01 "HgN/A
3:30 AM55 °FCool.5 mph94%30.01 "HgN/A
3:00 AM55 °FCool.6 mph94%30.01 "HgN/A
2:30 AM57 °FCool.6 mph88%30.01 "HgN/A
2:00 AM57 °FCool.5 mph88%30.04 "HgN/A
1:30 AM55 °FCool.2 mph88%30.01 "HgN/A
1:00 AM57 °FCool.3 mph82%30.01 "HgN/A
12:30 AM57 °FCool.3 mph88%30.01 "HgN/A
12:00 AM57 °FCool.1 mph82%30.01 "HgN/A
11:30 PM
Tue, Jun 28
59 °FCool.5 mph82%30.01 "HgN/A
11:00 PM59 °FCool.5 mph88%30.01 "HgN/A
10:30 PM61 °FCool.2 mph83%30.01 "HgN/A
10:00 PM64 °FClear.3 mph73%30.01 "Hg10 mi
9:30 PM64 °FSunny.2 mph73%30.01 "Hg10 mi
9:00 PM68 °FSunny.6 mph64%30.01 "Hg10 mi
8:30 PM72 °FSunny.3 mph53%30.01 "Hg10 mi
8:00 PM73 °FSunny.7 mph50%29.98 "Hg10 mi
7:30 PM75 °FSunny.7 mph47%30.01 "Hg10 mi
7:00 PM75 °FPassing clouds.9 mph47%30.01 "HgN/A
6:30 PM75 °FSunny.10 mph47%29.98 "Hg10 mi
6:00 PM77 °FPassing clouds.10 mph44%29.98 "HgN/A
5:30 PM75 °FPassing clouds.10 mph44%29.98 "HgN/A
5:00 PM75 °FPassing clouds.10 mph44%29.98 "HgN/A
4:30 PM79 °FPassing clouds.14 mph42%29.98 "HgN/A
4:00 PM79 °FSunny.14 mph39%29.98 "Hg10 mi
Weather by CustomWeather, © 2016

See weather overviewHow to use our weather pages